Skip Page Navigation
NASA JPL Caltech
NASA Logo - Jet Propulsion Laboratory + View the NASA Portal
+ Near-Earth Object (NEO) Program
Search JPL
JPL Home Earth Solar System Stars & Galaxies Technology
JPL Solar System Dynamics
BODIES ORBITS EPHEMERIDES TOOLS PHYSICAL DATA DISCOVERY FAQ SITE MAP
JPL Small-Body Database Browser
Search: [ help ]  
(2010 VU98)
Classification: Apollo [NEO]          SPK-ID: 3551325
Ephemeris | Orbit Diagram | Orbital Elements | Physical Parameters | Close-Approach Data ]

[ hide orbit diagram ]
Orbit Diagram
Note: Make sure you have Java enabled on your browser to see the applet. This applet is provided as a 3D orbit visualization tool. The applet was implemented using 2-body methods, and hence should not be used for determining accurate long-term trajectories (over several years or decades) or planetary encounter circumstances. For accurate long-term ephemerides, please instead use our Horizons system.
Orbit Viewer

Additional Notes: the orbits shown in the applet are color coded. The planets are white lines, and the asteroid/comet is a blue line. The bright white line indicates the portion of the orbit that is above the ecliptic plane, and the darker portion is below the ecliptic plane. Likewise for the asteroid/comet orbit, the light blue indicates the portion above the ecliptic plane, and the dark blue the portion below the ecliptic plane.

Orbit Viewer applet originally written and kindly provided by Osamu Ajiki (AstroArts), and further modified by Ron Baalke (JPL).


Orbital Elements at Epoch 2456400.5 (2013-Apr-18.0) TDB
Reference: JPL 6 (heliocentric ecliptic J2000)
 Element Value Uncertainty (1-sigma)   Units 
e .2671975654724066 0.0005275  
a 1.010944181297156 0.0001355 AU
q .7408223572260607 0.00043402 AU
i 6.976985487832288 0.014141 deg
node 229.414245788066 0.004745 deg
peri 63.0863152939437 0.0089814 deg
M 230.443225164111 0.24162 deg
tp 2456534.112416823535
(2013-Aug-29.61241682)
0.27605 JED
period 371.2694308530135
1.02
0.074644
0.0002044
d
yr
n .9696462193854168 0.00019495 deg/d
Q 1.281066005368251 0.00017171 AU
  Orbit Determination Parameters
   # obs. used (total)      38  
   data-arc span      18 days  
   first obs. used      2010-11-10  
   last obs. used      2010-11-28  
   planetary ephem.      DE405  
   SB-pert. ephem.      SB405-CPV-2  
   condition code      6  
   fit RMS      .63385  
   data source      ORB  
   producer      Otto Matic  
   solution date      2011-Sep-14 21:00:11  

Additional Information
 Earth MOID = .0290647 AU 
 T_jup = 5.990 
[ show covariance matrix ]

Ephemeris | Orbit Diagram | Orbital Elements | Physical Parameters | Close-Approach Data ]

Physical Parameter Table
Parameter Symbol Value Units Sigma Reference Notes
absolute magnitude H 24.713 mag .50777 6 autocmod 2.5a

[ show close-approach data ]
Ephemeris | Orbit Diagram | Orbital Elements | Physical Parameters | Close-Approach Data ]
ABOUT SSD CREDITS/AWARDS PRIVACY/COPYRIGHT GLOSSARY LINKS
FirstGov 2013-Jun-20 04:12 UT
(server date/time)  
NASA Home Page
Site Manager:   Donald K. Yeomans
Webmaster  Alan B. Chamberlin